| time (UTC) | temp C | wind direction | speed KPH | gust KPH | rain 1hr cm | rain 24hr cm | rain mn cm | humidity % | barometer mb |
| 20260502223306 | 18 | 228 | 11.3 | 11.3 | 0.00 | 0.00 | 0.00 | 31 | 1011.7 |
| 20260502222803 | 18 | 283 | 6.4 | 14.5 | 0.00 | 0.00 | 0.00 | 32 | 1011.7 |
| 20260502222301 | 18 | 213 | 1.6 | 11.3 | 0.00 | 0.00 | 0.00 | 31 | 1011.9 |
| 20260502221756 | 18 | 203 | 12.9 | 17.7 | 0.00 | 0.00 | 0.00 | 31 | 1011.7 |
| 20260502221252 | 18 | 205 | 8.0 | 9.7 | 0.00 | 0.00 | 0.00 | 32 | 1011.8 |
| 20260502220749 | 18 | 208 | 9.7 | 12.9 | 0.00 | 0.00 | 0.00 | 32 | 1012.0 |
| 20260502220245 | 18 | 229 | 4.8 | 9.7 | 0.00 | 0.00 | 0.00 | 32 | 1012.0 |
| 20260502215742 | 18 | 202 | 8.0 | 9.7 | 0.00 | 0.00 | 0.00 | 31 | 1012.0 |
| 20260502215239 | 18 | 231 | 3.2 | 11.3 | 0.00 | 0.00 | 0.00 | 33 | 1012.1 |
| 20260502214737 | 18 | 243 | 8.0 | 16.1 | 0.00 | 0.00 | 0.00 | 32 | 1012.2 |
| 20260502214235 | 18 | 219 | 4.8 | 9.7 | 0.00 | 0.00 | 0.00 | 32 | 1012.2 |
| 20260502213731 | 18 | 295 | 8.0 | 20.9 | 0.00 | 0.00 | 0.00 | 31 | 1012.2 |
| 20260502213228 | 18 | 241 | 6.4 | 12.9 | 0.00 | 0.00 | 0.00 | 31 | 1012.5 |
| 20260502212726 | 19 | 306 | 8.0 | 14.5 | 0.00 | 0.00 | 0.00 | 31 | 1012.4 |
| 20260502212224 | 20 | 279 | 8.0 | 11.3 | 0.00 | 0.00 | 0.00 | 31 | 1012.5 |
| 20260502211720 | 20 | 212 | 4.8 | 9.7 | 0.00 | 0.00 | 0.00 | 30 | 1012.6 |
| 20260502211217 | 19 | 239 | 8.0 | 11.3 | 0.00 | 0.00 | 0.00 | 30 | 1012.7 |
| 20260502210714 | 18 | 324 | 4.8 | 12.9 | 0.00 | 0.00 | 0.00 | 31 | 1012.8 |
| 20260502210211 | 18 | 316 | 9.7 | 11.3 | 0.00 | 0.00 | 0.00 | 31 | 1013.1 |
| 20260502205709 | 19 | 248 | 6.4 | 16.1 | 0.00 | 0.00 | 0.00 | 30 | 1012.9 |
| 20260502205205 | 19 | 238 | 3.2 | 9.7 | 0.00 | 0.00 | 0.00 | 31 | 1013.2 |
| 20260502204702 | 18 | 209 | 4.8 | 11.3 | 0.00 | 0.00 | 0.00 | 31 | 1013.3 |
| 20260502204200 | 18 | 269 | 14.5 | 16.1 | 0.00 | 0.00 | 0.00 | 31 | 1013.3 |
| 20260502203657 | 18 | 277 | 6.4 | 16.1 | 0.00 | 0.00 | 0.00 | 32 | 1013.4 |
| 20260502203155 | 18 | 243 | 9.7 | 17.7 | 0.00 | 0.00 | 0.00 | 32 | 1013.5 |
| 20260502202648 | 18 | 223 | 1.6 | 16.1 | 0.00 | 0.00 | 0.00 | 31 | 1013.5 |
| 20260502202147 | 18 | 199 | 8.0 | 11.3 | 0.00 | 0.00 | 0.00 | 31 | 1013.9 |
| 20260502201644 | 18 | 240 | 12.9 | 16.1 | 0.00 | 0.00 | 0.00 | 30 | 1014.0 |
| 20260502201140 | 18 | 215 | 3.2 | 8.0 | 0.00 | 0.00 | 0.00 | 31 | 1014.1 |
| 20260502200636 | 18 | 208 | 3.2 | 9.7 | 0.00 | 0.00 | 0.00 | 33 | 1014.2 |
| 20260502200133 | 17 | 294 | 8.0 | 17.7 | 0.00 | 0.00 | 0.00 | 33 | 1014.2 |
| 20260502195632 | 17 | 233 | 11.3 | 16.1 | 0.00 | 0.00 | 0.00 | 32 | 1014.5 |
| 20260502195127 | 17 | 214 | 1.6 | 11.3 | 0.00 | 0.00 | 0.00 | 33 | 1014.5 |
| 20260502194624 | 17 | 266 | 11.3 | 16.1 | 0.00 | 0.00 | 0.00 | 31 | 1014.8 |
| 20260502194121 | 17 | 287 | 4.8 | 16.1 | 0.00 | 0.00 | 0.00 | 33 | 1014.7 |
| 20260502193617 | 17 | 223 | 11.3 | 32.2 | 0.00 | 0.00 | 0.00 | 31 | 1014.8 |
| 20260502193114 | 17 | 272 | 4.8 | 14.5 | 0.00 | 0.00 | 0.00 | 32 | 1014.9 |
| 20260502192609 | 17 | 226 | 6.4 | 12.9 | 0.00 | 0.00 | 0.00 | 32 | 1015.0 |
| 20260502192108 | 17 | 217 | 11.3 | 14.5 | 0.00 | 0.00 | 0.00 | 32 | 1015.3 |
| 20260502191604 | 16 | 301 | 6.4 | 11.3 | 0.00 | 0.00 | 0.00 | 33 | 1015.4 |
| 20260502191102 | 17 | 246 | 11.3 | 14.5 | 0.00 | 0.00 | 0.00 | 33 | 1015.3 |
| 20260502190559 | 16 | 204 | 6.4 | 11.3 | 0.00 | 0.00 | 0.00 | 32 | 1015.3 |
| 20260502190050 | 17 | 257 | 11.3 | 14.5 | 0.00 | 0.00 | 0.00 | 32 | 1015.3 |
| 20260502185545 | 16 | 239 | 9.7 | 11.3 | 0.00 | 0.00 | 0.00 | 33 | 1015.7 |
| 20260502185042 | 16 | 235 | 4.8 | 9.7 | 0.00 | 0.00 | 0.00 | 33 | 1015.8 |
| 20260502184538 | 15 | 209 | 8.0 | 12.9 | 0.00 | 0.00 | 0.00 | 33 | 1015.9 |
| 20260502184034 | 16 | 298 | 8.0 | 17.7 | 0.00 | 0.00 | 0.00 | 34 | 1015.9 |
| 20260502183531 | 15 | 307 | 8.0 | 17.7 | 0.00 | 0.00 | 0.00 | 33 | 1016.1 |
| 20260502183027 | 16 | 339 | 4.8 | 12.9 | 0.00 | 0.00 | 0.00 | 33 | 1016.2 |
| 20260502182521 | 16 | 222 | 8.0 | 16.1 | 0.00 | 0.00 | 0.00 | 34 | 1016.3 |
| 20260502182012 | 15 | 205 | 8.0 | 16.1 | 0.00 | 0.00 | 0.00 | 34 | 1016.2 |
| 20260502181510 | 15 | 267 | 6.4 | 11.3 | 0.00 | 0.00 | 0.00 | 33 | 1016.4 |
| 20260502181009 | 15 | 233 | 4.8 | 9.7 | 0.00 | 0.00 | 0.00 | 34 | 1016.5 |
| 20260502180505 | 15 | 222 | 8.0 | 9.7 | 0.00 | 0.00 | 0.00 | 35 | 1016.6 |
| 20260502170424 | 14 | 237 | 9.7 | 14.5 | 0.00 | 0.00 | 0.00 | 34 | 1017.8 |
| 20260502163908 | 13 | 185 | 1.6 | 8.0 | 0.00 | 0.00 | 0.00 | 37 | 1017.9 |
| 20260502163404 | 13 | 258 | 9.7 | 12.9 | 0.00 | 0.00 | 0.00 | 35 | 1018.0 |
| 20260502162902 | 13 | 245 | 4.8 | 4.8 | 0.00 | 0.00 | 0.00 | 36 | 1018.2 |
| 20260502162358 | 13 | 310 | 8.0 | 14.5 | 0.00 | 0.00 | 0.00 | 37 | 1018.3 |
| 20260502161855 | 13 | 308 | 11.3 | 17.7 | 0.00 | 0.00 | 0.00 | 37 | 1018.3 |
| 20260502161351 | 12 | 200 | 3.2 | 8.0 | 0.00 | 0.00 | 0.00 | 37 | 1018.4 |
| 20260502160849 | 13 | 311 | 9.7 | 16.1 | 0.00 | 0.00 | 0.00 | 37 | 1018.4 |
| 20260502160348 | 12 | 307 | 6.4 | 9.7 | 0.00 | 0.00 | 0.00 | 38 | 1018.3 |
| 20260502152328 | 12 | 265 | 4.8 | 8.0 | 0.00 | 0.00 | 0.00 | 41 | 1018.5 |
| 20260502151826 | 12 | 258 | 9.7 | 16.1 | 0.00 | 0.00 | 0.00 | 43 | 1018.8 |
| 20260502151322 | 12 | 258 | 4.8 | 9.7 | 0.00 | 0.00 | 0.00 | 42 | 1018.9 |
| 20260502150820 | 11 | 205 | 3.2 | 11.3 | 0.00 | 0.00 | 0.00 | 45 | 1018.7 |
| 20260502150316 | 11 | 233 | 4.8 | 9.7 | 0.00 | 0.00 | 0.00 | 47 | 1019.2 |
| 20260502130705 | 6 | 242 | 3.2 | 8.0 | 0.00 | 0.00 | 0.00 | 61 | 1019.5 |
| 20260502130202 | 6 | 228 | 3.2 | 4.8 | 0.00 | 0.00 | 0.00 | 61 | 1019.6 |
| 20260502123648 | 5 | 195 | 1.6 | 4.8 | 0.00 | 0.00 | 0.00 | 65 | 1019.5 |
| 20260502123145 | 5 | 190 | 1.6 | 3.2 | 0.00 | 0.00 | 0.00 | 66 | 1019.6 |
| 20260502122641 | 4 | 187 | 0.0 | 0.0 | 0.00 | 0.00 | 0.00 | 66 | 1019.4 |
| 20260502122138 | 4 | 181 | 0.0 | 4.8 | 0.00 | 0.00 | 0.00 | 66 | 1019.4 |
| 20260502121636 | 4 | 202 | 1.6 | 1.6 | 0.00 | 0.00 | 0.00 | 66 | 1019.5 |
| 20260502121133 | 3 | 189 | 0.0 | 0.0 | 0.00 | 0.00 | 0.00 | 69 | 1019.5 |
| 20260502120630 | 3 | 193 | 1.6 | 1.6 | 0.00 | 0.00 | 0.00 | 68 | 1019.3 |
| 20260502120127 | 3 | 187 | 0.0 | 0.0 | 0.00 | 0.00 | 0.00 | 69 | 1019.2 |
| 20260502115624 | 3 | 236 | 4.8 | 4.8 | 0.00 | 0.00 | 0.00 | 70 | 1019.2 |
| 20260502115120 | 3 | 196 | 3.2 | 4.8 | 0.00 | 0.00 | 0.00 | 71 | 1019.2 |
| 20260502114616 | 2 | 222 | 3.2 | 4.8 | 0.00 | 0.00 | 0.00 | 71 | 1019.2 |
| 20260502114114 | 2 | 221 | 1.6 | 3.2 | 0.00 | 0.00 | 0.00 | 71 | 1019.1 |
| 20260502113611 | 2 | 202 | 1.6 | 8.0 | 0.00 | 0.00 | 0.00 | 72 | 1019.0 |
| 20260502113110 | 2 | 203 | 1.6 | 3.2 | 0.00 | 0.00 | 0.00 | 73 | 1019.1 |
| 20260502112607 | 2 | 196 | 0.0 | 0.0 | 0.00 | 0.00 | 0.00 | 75 | 1018.9 |
| 20260502112104 | 2 | 200 | 0.0 | 0.0 | 0.00 | 0.00 | 0.00 | 74 | 1018.8 |
| 20260502111602 | 2 | 202 | 0.0 | 1.6 | 0.00 | 0.00 | 0.00 | 75 | 1019.1 |
| 20260502111059 | 2 | 204 | 1.6 | 3.2 | 0.00 | 0.00 | 0.00 | 74 | 1019.2 |
| 20260502110556 | 2 | 203 | 1.6 | 1.6 | 0.00 | 0.00 | 0.00 | 74 | 1018.8 |
| 20260502110054 | 2 | 203 | 1.6 | 1.6 | 0.00 | 0.00 | 0.00 | 73 | 1018.8 |
| 20260502105551 | 2 | 204 | 1.6 | 3.2 | 0.00 | 0.00 | 0.00 | 74 | 1019.0 |
| 20260502105048 | 2 | 210 | 3.2 | 3.2 | 0.00 | 0.00 | 0.00 | 74 | 1019.0 |
| 20260502104545 | 2 | 210 | 4.8 | 4.8 | 0.00 | 0.00 | 0.00 | 73 | 1018.9 |
| 20260502104043 | 2 | 212 | 1.6 | 3.2 | 0.00 | 0.00 | 0.00 | 73 | 1019.0 |
| 20260502103540 | 2 | 213 | 3.2 | 3.2 | 0.00 | 0.00 | 0.00 | 72 | 1019.0 |
| 20260502103038 | 2 | 205 | 1.6 | 4.8 | 0.00 | 0.00 | 0.00 | 72 | 1019.0 |
| 20260502102534 | 2 | 206 | 1.6 | 3.2 | 0.00 | 0.00 | 0.00 | 72 | 1019.1 |
| 20260502102032 | 2 | 211 | 1.6 | 3.2 | 0.00 | 0.00 | 0.00 | 72 | 1019.0 |
| 20260502101529 | 2 | 210 | 1.6 | 3.2 | 0.00 | 0.00 | 0.00 | 72 | 1019.0 |
| 20260502101028 | 2 | 205 | 1.6 | 3.2 | 0.00 | 0.00 | 0.00 | 71 | 1019.0 |
| 20260502100526 | 2 | 213 | 3.2 | 3.2 | 0.00 | 0.00 | 0.00 | 71 | 1018.8 |
| 20260502091500 | 2 | 204 | 1.6 | 1.6 | 0.00 | 0.00 | 0.00 | 72 | 1018.9 |
| 20260502090958 | 2 | 205 | 1.6 | 3.2 | 0.00 | 0.00 | 0.00 | 71 | 1018.8 |
| 20260502090454 | 3 | 202 | 3.2 | 3.2 | 0.00 | 0.00 | 0.00 | 70 | 1019.0 |
| 20260502071349 | 4 | 215 | 3.2 | 3.2 | 0.00 | 0.00 | 0.00 | 65 | 1019.0 |
| 20260502070847 | 4 | 212 | 1.6 | 1.6 | 0.00 | 0.00 | 0.00 | 65 | 1019.0 |
| 20260502070344 | 4 | 207 | 1.6 | 3.2 | 0.00 | 0.00 | 0.00 | 65 | 1019.1 |
| 20260502065844 | 4 | 215 | 3.2 | 3.2 | 0.00 | 0.00 | 0.00 | 65 | 1019.0 |
| 20260502065341 | 4 | 202 | 0.0 | 1.6 | 0.00 | 0.00 | 0.00 | 66 | 1019.1 |
| 20260502064839 | 4 | 204 | 0.0 | 1.6 | 0.00 | 0.00 | 0.00 | 66 | 1019.4 |
| 20260502064337 | 4 | 221 | 0.0 | 1.6 | 0.00 | 0.00 | 0.00 | 67 | 1019.2 |
| 20260502063833 | 4 | 201 | 1.6 | 1.6 | 0.00 | 0.00 | 0.00 | 66 | 1019.1 |
| 20260502063331 | 4 | 200 | 1.6 | 1.6 | 0.00 | 0.00 | 0.00 | 66 | 1019.2 |
| 20260502062828 | 5 | 198 | 0.0 | 1.6 | 0.00 | 0.00 | 0.00 | 65 | 1019.3 |
| 20260502062326 | 5 | 201 | 1.6 | 1.6 | 0.00 | 0.00 | 0.00 | 63 | 1019.3 |
| 20260502061825 | 5 | 203 | 0.0 | 0.0 | 0.00 | 0.00 | 0.00 | 63 | 1019.4 |
| 20260502061322 | 5 | 202 | 0.0 | 0.0 | 0.00 | 0.00 | 0.00 | 61 | 1019.1 |
| 20260502060817 | 5 | 205 | 0.0 | 0.0 | 0.00 | 0.00 | 0.00 | 61 | 1019.3 |
| 20260502060312 | 5 | 206 | 1.6 | 1.6 | 0.00 | 0.00 | 0.00 | 61 | 1019.2 |
| 20260502055811 | 5 | 204 | 0.0 | 1.6 | 0.00 | 0.00 | 0.00 | 59 | 1019.2 |
| 20260502055308 | 5 | 220 | 1.6 | 3.2 | 0.00 | 0.00 | 0.00 | 59 | 1019.3 |
| 20260502054808 | 5 | 207 | 1.6 | 3.2 | 0.00 | 0.00 | 0.00 | 58 | 1019.3 |
| 20260502054305 | 5 | 205 | 0.0 | 1.6 | 0.00 | 0.00 | 0.00 | 59 | 1019.4 |
| 20260502053802 | 5 | 207 | 1.6 | 1.6 | 0.00 | 0.00 | 0.00 | 57 | 1019.3 |
| 20260502053259 | 5 | 205 | 1.6 | 1.6 | 0.00 | 0.00 | 0.00 | 57 | 1019.4 |
| 20260502052757 | 5 | 207 | 1.6 | 1.6 | 0.00 | 0.00 | 0.00 | 57 | 1019.0 |
| 20260502052255 | 5 | 208 | 1.6 | 3.2 | 0.00 | 0.00 | 0.00 | 57 | 1019.2 |
| 20260502051752 | 5 | 215 | 1.6 | 3.2 | 0.00 | 0.00 | 0.00 | 56 | 1019.3 |
| 20260502051251 | 6 | 207 | 1.6 | 3.2 | 0.00 | 0.00 | 0.00 | 56 | 1019.3 |
| 20260502050747 | 6 | 209 | 1.6 | 3.2 | 0.00 | 0.00 | 0.00 | 56 | 1019.1 |
| 20260502050243 | 6 | 221 | 1.6 | 3.2 | 0.00 | 0.00 | 0.00 | 55 | 1019.2 |
| 20260502045740 | 6 | 215 | 1.6 | 3.2 | 0.00 | 0.00 | 0.00 | 55 | 1019.1 |
| 20260502045237 | 6 | 223 | 1.6 | 3.2 | 0.00 | 0.00 | 0.00 | 55 | 1019.0 |
| 20260502044734 | 6 | 223 | 3.2 | 3.2 | 0.00 | 0.00 | 0.00 | 54 | 1019.1 |
| 20260502044230 | 6 | 221 | 1.6 | 3.2 | 0.00 | 0.00 | 0.00 | 55 | 1019.2 |
| 20260502043728 | 6 | 210 | 1.6 | 3.2 | 0.00 | 0.00 | 0.00 | 54 | 1019.0 |
| 20260502043225 | 6 | 208 | 1.6 | 3.2 | 0.00 | 0.00 | 0.00 | 55 | 1019.2 |
| 20260502042724 | 6 | 206 | 1.6 | 1.6 | 0.00 | 0.00 | 0.00 | 55 | 1019.1 |
| 20260502042222 | 6 | 209 | 0.0 | 0.0 | 0.00 | 0.00 | 0.00 | 54 | 1019.0 |
| 20260502041719 | 6 | 204 | 0.0 | 0.0 | 0.00 | 0.00 | 0.00 | 54 | 1019.1 |
| 20260502041216 | 6 | 203 | 0.0 | 0.0 | 0.00 | 0.00 | 0.00 | 53 | 1019.1 |
| 20260502040713 | 6 | 203 | 1.6 | 1.6 | 0.00 | 0.00 | 0.00 | 52 | 1019.1 |
| 20260502040210 | 6 | 204 | 1.6 | 1.6 | 0.00 | 0.00 | 0.00 | 52 | 1019.2 |
| 20260502035706 | 6 | 206 | 1.6 | 3.2 | 0.00 | 0.00 | 0.00 | 51 | 1019.2 |
| 20260502035203 | 6 | 209 | 0.0 | 0.0 | 0.00 | 0.00 | 0.00 | 51 | 1019.2 |
| 20260502034701 | 6 | 203 | 0.0 | 0.0 | 0.00 | 0.00 | 0.00 | 50 | 1019.0 |
| 20260502034159 | 7 | 203 | 0.0 | 0.0 | 0.00 | 0.00 | 0.00 | 50 | 1019.2 |
| 20260502033657 | 7 | 203 | 0.0 | 1.6 | 0.00 | 0.00 | 0.00 | 48 | 1019.1 |
| 20260502033154 | 7 | 208 | 1.6 | 3.2 | 0.00 | 0.00 | 0.00 | 47 | 1019.3 |
| 20260502032650 | 7 | 216 | 1.6 | 1.6 | 0.00 | 0.00 | 0.00 | 47 | 1019.2 |
| 20260502032147 | 7 | 209 | 1.6 | 3.2 | 0.00 | 0.00 | 0.00 | 45 | 1019.1 |
| 20260502031644 | 7 | 209 | 1.6 | 1.6 | 0.00 | 0.00 | 0.00 | 45 | 1019.4 |
| 20260502031142 | 7 | 203 | 1.6 | 1.6 | 0.00 | 0.00 | 0.00 | 48 | 1019.2 |
| 20260502030641 | 7 | 210 | 3.2 | 3.2 | 0.00 | 0.00 | 0.00 | 47 | 1019.1 |
| 20260502030139 | 7 | 204 | 1.6 | 1.6 | 0.00 | 0.00 | 0.00 | 45 | 1019.2 |
| 20260502025635 | 7 | 216 | 1.6 | 3.2 | 0.00 | 0.00 | 0.00 | 43 | 1019.2 |
| 20260502025133 | 7 | 209 | 0.0 | 0.0 | 0.00 | 0.00 | 0.00 | 44 | 1019.1 |
| 20260502024631 | 7 | 204 | 0.0 | 0.0 | 0.00 | 0.00 | 0.00 | 43 | 1019.0 |
| 20260502024129 | 7 | 207 | 0.0 | 0.0 | 0.00 | 0.00 | 0.00 | 45 | 1019.1 |
| 20260502023627 | 7 | 203 | 0.0 | 0.0 | 0.00 | 0.00 | 0.00 | 45 | 1019.1 |
| 20260502023124 | 7 | 203 | 0.0 | 0.0 | 0.00 | 0.00 | 0.00 | 45 | 1019.0 |
| 20260502022620 | 8 | 203 | 0.0 | 0.0 | 0.00 | 0.00 | 0.00 | 43 | 1019.0 |
| 20260502022118 | 8 | 207 | 0.0 | 0.0 | 0.00 | 0.00 | 0.00 | 43 | 1019.0 |
| 20260502021615 | 8 | 203 | 0.0 | 0.0 | 0.00 | 0.00 | 0.00 | 44 | 1019.1 |
| 20260502021112 | 8 | 202 | 0.0 | 0.0 | 0.00 | 0.00 | 0.00 | 43 | 1019.0 |
| 20260502020610 | 8 | 202 | 0.0 | 0.0 | 0.00 | 0.00 | 0.00 | 42 | 1019.0 |
| 20260502020106 | 8 | 202 | 0.0 | 0.0 | 0.00 | 0.00 | 0.00 | 41 | 1019.0 |
| 20260502015604 | 8 | 203 | 0.0 | 0.0 | 0.00 | 0.00 | 0.00 | 41 | 1018.9 |
| 20260502015100 | 9 | 202 | 0.0 | 0.0 | 0.00 | 0.00 | 0.00 | 40 | 1018.9 |
| 20260502014557 | 9 | 201 | 0.0 | 0.0 | 0.00 | 0.00 | 0.00 | 39 | 1018.7 |
| 20260502014054 | 9 | 200 | 0.0 | 0.0 | 0.00 | 0.00 | 0.00 | 38 | 1018.6 |
| 20260502013549 | 10 | 200 | 0.0 | 1.6 | 0.00 | 0.00 | 0.00 | 37 | 1018.7 |
| 20260502013046 | 10 | 203 | 1.6 | 1.6 | 0.00 | 0.00 | 0.00 | 37 | 1018.7 |
| 20260502012543 | 10 | 225 | 1.6 | 1.6 | 0.00 | 0.00 | 0.00 | 36 | 1018.8 |
| 20260502012041 | 10 | 205 | 0.0 | 1.6 | 0.00 | 0.00 | 0.00 | 36 | 1018.7 |
| 20260502011538 | 10 | 227 | 1.6 | 1.6 | 0.00 | 0.00 | 0.00 | 36 | 1018.6 |
| 20260502011034 | 10 | 240 | 3.2 | 3.2 | 0.00 | 0.00 | 0.00 | 35 | 1018.6 |
| 20260502010532 | 10 | 255 | 3.2 | 4.8 | 0.00 | 0.00 | 0.00 | 34 | 1018.5 |
| 20260502010028 | 10 | 236 | 4.8 | 8.0 | 0.00 | 0.00 | 0.00 | 34 | 1018.7 |
| 20260502005526 | 11 | 239 | 3.2 | 9.7 | 0.00 | 0.00 | 0.00 | 33 | 1018.6 |
| 20260502005023 | 11 | 256 | 3.2 | 4.8 | 0.00 | 0.00 | 0.00 | 33 | 1018.7 |
| 20260502004519 | 11 | 234 | 3.2 | 8.0 | 0.00 | 0.00 | 0.00 | 33 | 1018.3 |
| 20260502004016 | 11 | 246 | 3.2 | 4.8 | 0.00 | 0.00 | 0.00 | 34 | 1018.6 |
| 20260502003514 | 11 | 246 | 3.2 | 4.8 | 0.00 | 0.00 | 0.00 | 33 | 1018.5 |
| 20260502003010 | 11 | 213 | 1.6 | 3.2 | 0.00 | 0.00 | 0.00 | 34 | 1018.5 |
| 20260502002507 | 11 | 219 | 1.6 | 3.2 | 0.00 | 0.00 | 0.00 | 34 | 1018.6 |
| 20260502002004 | 11 | 273 | 4.8 | 8.0 | 0.00 | 0.00 | 0.00 | 33 | 1018.6 |
| 20260502001501 | 11 | 330 | 4.8 | 4.8 | 0.00 | 0.00 | 0.00 | 34 | 1018.5 |
| 20260502000959 | 11 | 244 | 1.6 | 3.2 | 0.00 | 0.00 | 0.00 | 34 | 1018.4 |
| 20260502000457 | 10 | 228 | 3.2 | 8.0 | 0.00 | 0.00 | 0.00 | 34 | 1018.4 |
| 20260501235953 | 10 | 252 | 3.2 | 3.2 | 0.00 | 0.00 | 0.00 | 35 | 1018.6 |
| 20260501235449 | 10 | 281 | 3.2 | 4.8 | 0.00 | 0.00 | 0.00 | 36 | 1018.5 |
| 20260501234944 | 10 | 239 | 1.6 | 4.8 | 0.00 | 0.00 | 0.00 | 35 | 1018.6 |
| 20260501234441 | 10 | 319 | 3.2 | 4.8 | 0.00 | 0.00 | 0.00 | 35 | 1018.6 |
| 20260501233940 | 10 | 214 | 1.6 | 8.0 | 0.00 | 0.00 | 0.00 | 34 | 1018.5 |
| 20260501233437 | 11 | 52 | 3.2 | 4.8 | 0.00 | 0.00 | 0.00 | 34 | 1018.5 |
| 20260501232933 | 11 | 307 | 4.8 | 8.0 | 0.00 | 0.00 | 0.00 | 33 | 1018.5 |
| 20260501232430 | 11 | 56 | 4.8 | 4.8 | 0.00 | 0.00 | 0.00 | 34 | 1018.5 |
| 20260501231927 | 11 | 207 | 1.6 | 9.7 | 0.00 | 0.00 | 0.00 | 33 | 1018.4 |
| 20260501231426 | 11 | 333 | 6.4 | 8.0 | 0.00 | 0.00 | 0.00 | 33 | 1018.4 |
| 20260501230923 | 11 | 205 | 1.6 | 9.7 | 0.00 | 0.00 | 0.00 | 32 | 1018.6 |
| 20260501230422 | 11 | 260 | 4.8 | 4.8 | 0.00 | 0.00 | 0.00 | 33 | 1018.4 |
| 20260501225919 | 11 | 354 | 6.4 | 8.0 | 0.00 | 0.00 | 0.00 | 33 | 1018.5 |
| 20260501225417 | 11 | 333 | 9.7 | 12.9 | 0.00 | 0.00 | 0.00 | 32 | 1018.5 |
| 20260501224912 | 11 | 195 | 3.2 | 11.3 | 0.00 | 0.00 | 0.00 | 33 | 1018.7 |
| 20260501224410 | 11 | 335 | 8.0 | 9.7 | 0.00 | 0.00 | 0.00 | 32 | 1018.4 |
| 20260501223906 | 11 | 306 | 9.7 | 11.3 | 0.00 | 0.00 | 0.00 | 32 | 1018.7 |